Flag for U.S.A. Weather past 2 weeks in Independence, Missouri, U.S.A.

Now
69 °F

Sunny.


Feels Like: 69 °F
Forecast: 61 / 82 °F
Wind: 10 mph from South

Location: Lee's Summit Municipal Airport

Current Time: Aug 27, 2015 at 4:38:22 PM

Latest Report: Aug 27, 2015 at 3:53 PM


Visibility: 10 mi

Pressure: 30.03 "Hg

Humidity: 81%

Dew point: 63 °F

Location of IndependenceLocation

Historic Weather in Independence — Graph

°F

Independence temperature yesterday

Maximum temperature yesterday: 81 °F (at 4:53 PM)
Minimum temperature yesterday: 60 °F (at 6:53 AM)
Average temperature yesterday: 70 °F

Past Weeks' High & Low Weather Summary

 TemperatureHumidityPressure
High89 °F (Aug 17, 1:53 PM)97% (Aug 24, 6:53 AM)30.20 "Hg (Aug 24, 6:53 AM)
Low52 °F (Aug 24, 6:53 AM)33% (Aug 24, 1:53 PM)29.65 "Hg (Aug 18, 5:53 PM)
Average73 °F66%30.03 "Hg
* Reported Aug 12 2:53 PM — Aug 27 2:53 PM, Independence, Weather by CustomWeather, © 2015

Note: Actual official high and low records may vary slightly from our data, if they occured in-between our weather recording intervals... More about our weather records

Advertising

Independence weather history for previous 24 hours

 ConditionsComfort  
Time TempWeatherWind HumidityBarometerVisibility
2:53 PM
Thu, Aug 27
67 °FPassing clouds.8 mph85%30.10 "Hg10 mi
2:04 PM65 °FThunderstorms. Broken clouds.15 mph87%30.15 "Hg10 mi
1:53 PM65 °FThunderstorms. Cloudy.13 mph87%30.18 "Hg10 mi
12:53 PM67 °FSunny.5 mph87%30.07 "Hg10 mi
11:53 AM64 °FLight rain. Broken clouds.6 mph90%30.07 "Hg10 mi
10:53 AM64 °FStrong thunderstorms. Fog.9 mph90%30.11 "Hg1 mi
9:53 AM64 °FThundershowers. Mostly cloudy.8 mph84%30.11 "Hg10 mi
8:53 AM68 °FThundershowers. Partly sunny.10 mph65%30.09 "Hg10 mi
7:53 AM67 °FPartly sunny.9 mph66%30.10 "Hg10 mi
6:53 AM64 °FPassing clouds.7 mph73%30.08 "Hg9 mi
5:53 AM63 °FClear.6 mph73%30.08 "Hg10 mi
4:53 AM64 °FClear.7 mph70%30.08 "Hg10 mi
3:53 AM65 °FClear.7 mph66%30.08 "Hg10 mi
2:53 AM65 °FClear.7 mph68%30.08 "Hg10 mi
1:53 AM65 °FClear.6 mph73%30.08 "Hg10 mi
12:53 AM66 °FClear.7 mph73%30.11 "Hg10 mi
11:53 PM
Wed, Aug 26
66 °FClear.6 mph78%30.11 "Hg10 mi
10:53 PM67 °FClear.6 mph79%30.12 "Hg10 mi
9:53 PM68 °FClear.6 mph78%30.12 "Hg10 mi
8:53 PM70 °FSunny.6 mph76%30.11 "Hg10 mi
7:53 PM73 °FSunny.5 mph71%30.09 "Hg10 mi
6:53 PM77 °FSunny.5 mph56%30.09 "Hg10 mi
5:53 PM79 °FSunny.10 mph50%30.08 "Hg10 mi
4:53 PM81 °FSunny.5 mph47%30.11 "Hg10 mi
Weather by CustomWeather, © 2015

See weather overviewHow to use our weather pages